| time (UTC) | temp F | wind direction | speed MPH | gust MPH | rain 1hr in | rain 24hr in | rain mn in | humidity % | barometer mb |
| 20260507053010 | 78 | 147 | 4.0 | 13.0 | 0.00 | 0.00 | 0.00 | 86 | 1027.7 |
| 20260507052510 | 78 | 191 | 5.0 | 13.0 | 0.00 | 0.00 | 0.00 | 86 | 1027.7 |
| 20260507051454 | 78 | 163 | 5.0 | 13.0 | 0.00 | 0.00 | 0.00 | 87 | 1027.9 |
| 20260507050954 | 78 | 156 | 3.0 | 13.0 | 0.00 | 0.00 | 0.00 | 87 | 1027.8 |
| 20260507050454 | 78 | 145 | 5.0 | 13.0 | 0.00 | 0.00 | 0.00 | 86 | 1027.9 |
| 20260507045954 | 79 | 163 | 4.0 | 13.0 | 0.00 | 0.00 | 0.00 | 86 | 1028.1 |
| 20260507045454 | 79 | 155 | 6.0 | 13.0 | 0.00 | 0.00 | 0.00 | 85 | 1028.2 |
| 20260507044954 | 79 | 197 | 9.0 | 13.0 | 0.00 | 0.00 | 0.00 | 85 | 1028.3 |
| 20260507043938 | 79 | 156 | 6.0 | 12.0 | 0.00 | 0.00 | 0.00 | 85 | 1028.2 |
| 20260507043438 | 79 | 157 | 6.0 | 12.0 | 0.00 | 0.00 | 0.00 | 85 | 1028.6 |
| 20260507042422 | 79 | 206 | 8.0 | 12.0 | 0.00 | 0.00 | 0.00 | 85 | 1028.7 |
| 20260507040852 | 79 | 148 | 4.0 | 12.0 | 0.00 | 0.00 | 0.00 | 85 | 1028.7 |
| 20260507040352 | 79 | 187 | 8.0 | 12.0 | 0.00 | 0.00 | 0.00 | 84 | 1028.9 |
| 20260507035852 | 79 | 167 | 6.0 | 13.0 | 0.00 | 0.00 | 0.00 | 84 | 1028.7 |
| 20260507035352 | 79 | 184 | 6.0 | 13.0 | 0.00 | 0.00 | 0.00 | 84 | 1028.9 |
| 20260507034852 | 79 | 198 | 7.0 | 13.0 | 0.00 | 0.00 | 0.00 | 84 | 1028.9 |
| 20260507034352 | 79 | 179 | 7.0 | 13.0 | 0.00 | 0.00 | 0.00 | 85 | 1028.8 |
| 20260507033337 | 79 | 179 | 8.0 | 13.0 | 0.00 | 0.00 | 0.00 | 84 | 1028.7 |
| 20260507032837 | 79 | 169 | 6.0 | 13.0 | 0.00 | 0.00 | 0.00 | 84 | 1028.9 |
| 20260507032337 | 79 | 174 | 7.0 | 14.0 | 0.00 | 0.00 | 0.00 | 84 | 1028.9 |
| 20260507031321 | 79 | 164 | 8.0 | 14.0 | 0.00 | 0.00 | 0.00 | 84 | 1029.0 |
| 20260507030821 | 79 | 154 | 6.0 | 13.0 | 0.00 | 0.00 | 0.00 | 84 | 1029.2 |
| 20260507030321 | 79 | 208 | 8.0 | 13.0 | 0.00 | 0.00 | 0.00 | 84 | 1029.0 |
| 20260507025821 | 79 | 141 | 6.0 | 13.0 | 0.00 | 0.00 | 0.00 | 84 | 1029.1 |
| 20260507024806 | 79 | 176 | 6.0 | 13.0 | 0.00 | 0.00 | 0.00 | 84 | 1029.3 |
| 20260507024306 | 79 | 174 | 7.0 | 13.0 | 0.00 | 0.00 | 0.00 | 84 | 1029.2 |
| 20260507023806 | 79 | 168 | 6.0 | 13.0 | 0.00 | 0.00 | 0.00 | 84 | 1029.4 |
| 20260507023306 | 79 | 195 | 8.0 | 12.0 | 0.00 | 0.00 | 0.00 | 84 | 1029.3 |
| 20260507022806 | 79 | 159 | 7.0 | 12.0 | 0.00 | 0.00 | 0.00 | 85 | 1029.0 |
| 20260507022306 | 79 | 164 | 6.0 | 12.0 | 0.00 | 0.00 | 0.00 | 85 | 1029.2 |
| 20260507021806 | 79 | 182 | 8.0 | 12.0 | 0.00 | 0.00 | 0.00 | 85 | 1029.1 |
| 20260507021306 | 79 | 149 | 6.0 | 15.0 | 0.00 | 0.00 | 0.00 | 85 | 1029.4 |
| 20260507020251 | 79 | 177 | 8.0 | 13.0 | 0.00 | 0.00 | 0.00 | 85 | 1029.3 |
| 20260507014720 | 79 | 111 | 6.0 | 13.0 | 0.00 | 0.00 | 0.00 | 86 | 1029.0 |
| 20260507013705 | 79 | 135 | 6.0 | 13.0 | 0.00 | 0.00 | 0.00 | 86 | 1029.2 |
| 20260507013205 | 79 | 55 | 6.0 | 14.0 | 0.00 | 0.00 | 0.00 | 86 | 1028.8 |
| 20260507012704 | 79 | 100 | 6.0 | 14.0 | 0.00 | 0.00 | 0.00 | 86 | 1028.9 |
| 20260507012205 | 79 | 140 | 6.0 | 14.0 | 0.00 | 0.00 | 0.00 | 86 | 1028.8 |
| 20260507010649 | 79 | 139 | 6.0 | 12.0 | 0.00 | 0.00 | 0.00 | 85 | 1028.7 |
| 20260507010149 | 79 | 120 | 5.0 | 12.0 | 0.00 | 0.00 | 0.00 | 86 | 1028.7 |
| 20260507005649 | 79 | 145 | 5.0 | 12.0 | 0.00 | 0.00 | 0.00 | 86 | 1028.9 |
| 20260507005148 | 79 | 157 | 7.0 | 12.0 | 0.00 | 0.00 | 0.00 | 86 | 1028.8 |
| 20260507004648 | 79 | 186 | 8.0 | 12.0 | 0.00 | 0.00 | 0.00 | 86 | 1028.6 |
| 20260507003632 | 79 | 186 | 7.0 | 12.0 | 0.00 | 0.00 | 0.00 | 86 | 1028.5 |
| 20260507003132 | 79 | 141 | 6.0 | 12.0 | 0.00 | 0.00 | 0.00 | 86 | 1028.3 |
| 20260507002633 | 79 | 141 | 7.0 | 12.0 | 0.00 | 0.00 | 0.00 | 86 | 1028.4 |
| 20260507002133 | 79 | 164 | 3.0 | 12.0 | 0.00 | 0.00 | 0.00 | 85 | 1028.1 |
| 20260507001632 | 79 | 130 | 5.0 | 12.0 | 0.00 | 0.00 | 0.00 | 85 | 1028.3 |
| 20260507001133 | 79 | 176 | 5.0 | 12.0 | 0.00 | 0.00 | 0.00 | 85 | 1028.3 |
| 20260507000632 | 79 | 175 | 6.0 | 12.0 | 0.00 | 0.00 | 0.00 | 85 | 1028.3 |
| 20260507000132 | 79 | 142 | 4.0 | 12.0 | 0.00 | 0.00 | 0.00 | 85 | 1028.3 |
| 20260506235632 | 79 | 196 | 7.0 | 12.0 | 0.00 | 0.00 | 0.00 | 85 | 1028.1 |
| 20260506235133 | 79 | 144 | 6.0 | 12.0 | 0.00 | 0.00 | 0.00 | 85 | 1028.0 |
| 20260506234633 | 79 | 154 | 5.0 | 12.0 | 0.00 | 0.00 | 0.00 | 85 | 1027.9 |
| 20260506234132 | 79 | 167 | 5.0 | 13.0 | 0.00 | 0.00 | 0.00 | 85 | 1028.0 |
| 20260506233632 | 79 | 187 | 7.0 | 13.0 | 0.00 | 0.00 | 0.00 | 85 | 1027.8 |
| 20260506233133 | 79 | 125 | 5.0 | 11.0 | 0.00 | 0.00 | 0.00 | 85 | 1027.8 |
| 20260506232633 | 79 | 116 | 3.0 | 11.0 | 0.00 | 0.00 | 0.00 | 85 | 1027.8 |
| 20260506232132 | 79 | 178 | 4.0 | 11.0 | 0.00 | 0.00 | 0.00 | 84 | 1027.8 |
| 20260506231632 | 79 | 173 | 4.0 | 11.0 | 0.00 | 0.00 | 0.00 | 84 | 1027.6 |
| 20260506231132 | 79 | 166 | 6.0 | 11.0 | 0.00 | 0.00 | 0.00 | 84 | 1027.4 |
| 20260506230632 | 79 | 153 | 5.0 | 11.0 | 0.00 | 0.00 | 0.00 | 84 | 1027.4 |
| 20260506225617 | 79 | 145 | 6.0 | 11.0 | 0.00 | 0.00 | 0.00 | 84 | 1027.3 |
| 20260506225116 | 79 | 117 | 4.0 | 13.0 | 0.00 | 0.00 | 0.00 | 84 | 1027.4 |
| 20260506224617 | 80 | 165 | 4.0 | 13.0 | 0.00 | 0.00 | 0.00 | 83 | 1027.3 |
| 20260506224116 | 80 | 147 | 4.0 | 13.0 | 0.00 | 0.00 | 0.00 | 83 | 1027.1 |
| 20260506223616 | 80 | 124 | 5.0 | 13.0 | 0.00 | 0.00 | 0.00 | 82 | 1027.1 |
| 20260506223117 | 80 | 166 | 6.0 | 13.0 | 0.00 | 0.00 | 0.00 | 82 | 1027.2 |
| 20260506222102 | 80 | 126 | 5.0 | 13.0 | 0.00 | 0.00 | 0.00 | 82 | 1027.0 |
| 20260506221602 | 80 | 110 | 6.0 | 13.0 | 0.00 | 0.00 | 0.00 | 81 | 1027.1 |
| 20260506221102 | 80 | 134 | 5.0 | 13.0 | 0.00 | 0.00 | 0.00 | 81 | 1027.0 |
| 20260506220602 | 80 | 122 | 5.0 | 13.0 | 0.00 | 0.00 | 0.00 | 81 | 1027.1 |
| 20260506215602 | 80 | 137 | 7.0 | 13.0 | 0.00 | 0.00 | 0.00 | 81 | 1026.8 |
| 20260506215102 | 80 | 151 | 5.0 | 13.0 | 0.00 | 0.00 | 0.00 | 81 | 1026.9 |
| 20260506214601 | 80 | 163 | 8.0 | 13.0 | 0.00 | 0.00 | 0.00 | 81 | 1026.9 |
| 20260506214101 | 80 | 114 | 7.0 | 13.0 | 0.00 | 0.00 | 0.00 | 81 | 1026.6 |
| 20260506213601 | 80 | 161 | 8.0 | 13.0 | 0.00 | 0.00 | 0.00 | 80 | 1026.6 |
| 20260506213059 | 81 | 122 | 6.0 | 14.0 | 0.00 | 0.00 | 0.00 | 80 | 1026.5 |
| 20260506212559 | 81 | 135 | 7.0 | 14.0 | 0.00 | 0.00 | 0.00 | 80 | 1026.4 |
| 20260506212058 | 81 | 148 | 6.0 | 14.0 | 0.00 | 0.00 | 0.00 | 80 | 1026.4 |
| 20260506211043 | 81 | 157 | 8.0 | 14.0 | 0.00 | 0.00 | 0.00 | 81 | 1026.5 |
| 20260506210028 | 81 | 136 | 8.0 | 14.0 | 0.00 | 0.00 | 0.00 | 81 | 1026.3 |
| 20260506205528 | 81 | 156 | 9.0 | 14.0 | 0.00 | 0.00 | 0.00 | 81 | 1026.5 |
| 20260506203958 | 81 | 130 | 6.0 | 14.0 | 0.00 | 0.00 | 0.00 | 82 | 1026.6 |
| 20260506203458 | 81 | 166 | 8.0 | 14.0 | 0.00 | 0.00 | 0.00 | 82 | 1026.6 |
| 20260506202957 | 81 | 90 | 7.0 | 14.0 | 0.00 | 0.00 | 0.00 | 82 | 1026.4 |
| 20260506202457 | 81 | 118 | 7.0 | 14.0 | 0.00 | 0.00 | 0.00 | 82 | 1026.2 |
| 20260506201956 | 81 | 167 | 8.0 | 14.0 | 0.00 | 0.00 | 0.00 | 82 | 1026.4 |
| 20260506201455 | 81 | 174 | 8.0 | 13.0 | 0.00 | 0.00 | 0.00 | 82 | 1026.2 |
| 20260506200955 | 81 | 163 | 6.0 | 13.0 | 0.00 | 0.00 | 0.00 | 81 | 1026.5 |
| 20260506200455 | 81 | 167 | 7.0 | 15.0 | 0.00 | 0.00 | 0.00 | 80 | 1026.4 |
| 20260506195954 | 82 | 132 | 7.0 | 15.0 | 0.00 | 0.00 | 0.00 | 80 | 1026.6 |
| 20260506195454 | 81 | 137 | 7.0 | 15.0 | 0.00 | 0.00 | 0.00 | 80 | 1026.7 |
| 20260506194954 | 82 | 141 | 8.0 | 15.0 | 0.00 | 0.00 | 0.00 | 80 | 1026.7 |
| 20260506194454 | 82 | 148 | 7.0 | 15.0 | 0.00 | 0.00 | 0.00 | 80 | 1026.7 |
| 20260506193438 | 82 | 124 | 7.0 | 13.0 | 0.00 | 0.00 | 0.00 | 81 | 1026.9 |
| 20260506192423 | 82 | 137 | 7.0 | 15.0 | 0.00 | 0.00 | 0.00 | 80 | 1027.1 |
| 20260506191923 | 82 | 112 | 6.0 | 15.0 | 0.00 | 0.00 | 0.00 | 81 | 1026.9 |
| 20260506191423 | 82 | 90 | 9.0 | 15.0 | 0.00 | 0.00 | 0.00 | 80 | 1026.8 |
| 20260506190923 | 82 | 82 | 8.0 | 14.0 | 0.00 | 0.00 | 0.00 | 80 | 1026.8 |
| 20260506190422 | 81 | 125 | 8.0 | 14.0 | 0.00 | 0.00 | 0.00 | 81 | 1026.7 |
| 20260506185922 | 81 | 127 | 6.0 | 15.0 | 0.00 | 0.00 | 0.00 | 81 | 1027.0 |
| 20260506185422 | 81 | 150 | 8.0 | 15.0 | 0.00 | 0.00 | 0.00 | 81 | 1027.0 |
| 20260506184922 | 81 | 141 | 7.0 | 15.0 | 0.00 | 0.00 | 0.00 | 82 | 1027.1 |
| 20260506184422 | 82 | 96 | 7.0 | 14.0 | 0.00 | 0.00 | 0.00 | 82 | 1027.2 |
| 20260506183922 | 82 | 150 | 8.0 | 17.0 | 0.00 | 0.00 | 0.00 | 81 | 1027.5 |
| 20260506183422 | 82 | 72 | 9.0 | 17.0 | 0.00 | 0.00 | 0.00 | 80 | 1027.4 |
| 20260506182922 | 82 | 101 | 9.0 | 17.0 | 0.00 | 0.00 | 0.00 | 80 | 1027.8 |
| 20260506182422 | 82 | 111 | 8.0 | 14.0 | 0.00 | 0.00 | 0.00 | 80 | 1027.3 |
| 20260506181922 | 81 | 117 | 8.0 | 15.0 | 0.00 | 0.00 | 0.00 | 81 | 1027.3 |
| 20260506181422 | 81 | 107 | 9.0 | 15.0 | 0.00 | 0.00 | 0.00 | 81 | 1027.6 |
| 20260506180922 | 81 | 102 | 9.0 | 15.0 | 0.00 | 0.00 | 0.00 | 81 | 1027.7 |
| 20260506180422 | 82 | 98 | 9.0 | 15.0 | 0.00 | 0.00 | 0.00 | 81 | 1027.4 |
| 20260506175922 | 82 | 67 | 8.0 | 17.0 | 0.00 | 0.00 | 0.00 | 81 | 1027.8 |
| 20260506175421 | 81 | 88 | 7.0 | 17.0 | 0.00 | 0.00 | 0.00 | 81 | 1027.8 |
| 20260506174921 | 82 | 112 | 9.0 | 17.0 | 0.00 | 0.00 | 0.00 | 80 | 1027.7 |
| 20260506174421 | 82 | 89 | 9.0 | 15.0 | 0.00 | 0.00 | 0.00 | 81 | 1027.8 |
| 20260506173921 | 82 | 118 | 8.0 | 16.0 | 0.00 | 0.00 | 0.00 | 81 | 1028.3 |
| 20260506173421 | 82 | 167 | 10.0 | 16.0 | 0.00 | 0.00 | 0.00 | 80 | 1028.1 |
| 20260506172921 | 82 | 98 | 10.0 | 17.0 | 0.00 | 0.00 | 0.00 | 79 | 1027.9 |
| 20260506172421 | 83 | 130 | 10.0 | 17.0 | 0.00 | 0.00 | 0.00 | 78 | 1028.2 |
| 20260506171921 | 83 | 141 | 9.0 | 15.0 | 0.00 | 0.00 | 0.00 | 78 | 1028.2 |
| 20260506171421 | 84 | 112 | 9.0 | 15.0 | 0.00 | 0.00 | 0.00 | 78 | 1028.1 |
| 20260506170921 | 83 | 129 | 10.0 | 15.0 | 0.00 | 0.00 | 0.00 | 78 | 1028.2 |
| 20260506170421 | 83 | 105 | 9.0 | 15.0 | 0.00 | 0.00 | 0.00 | 78 | 1028.6 |
| 20260506165921 | 83 | 86 | 7.0 | 16.0 | 0.00 | 0.00 | 0.00 | 80 | 1028.4 |
| 20260506165421 | 83 | 99 | 10.0 | 16.0 | 0.00 | 0.00 | 0.00 | 79 | 1028.4 |
| 20260506164921 | 83 | 130 | 9.0 | 15.0 | 0.00 | 0.00 | 0.00 | 79 | 1028.5 |
| 20260506164420 | 83 | 163 | 8.0 | 15.0 | 0.00 | 0.00 | 0.00 | 78 | 1028.7 |
| 20260506163405 | 83 | 131 | 9.0 | 15.0 | 0.00 | 0.00 | 0.00 | 80 | 1028.7 |
| 20260506162904 | 83 | 150 | 8.0 | 16.0 | 0.00 | 0.00 | 0.00 | 79 | 1028.6 |
| 20260506162403 | 82 | 189 | 10.0 | 16.0 | 0.00 | 0.00 | 0.00 | 79 | 1028.8 |
| 20260506161902 | 83 | 124 | 9.0 | 16.0 | 0.00 | 0.00 | 0.00 | 79 | 1028.8 |
| 20260506161401 | 83 | 163 | 9.0 | 14.0 | 0.00 | 0.00 | 0.00 | 78 | 1028.8 |
| 20260506160346 | 83 | 144 | 9.0 | 20.0 | 0.00 | 0.00 | 0.00 | 78 | 1028.8 |
| 20260506155331 | 83 | 141 | 8.0 | 16.0 | 0.00 | 0.00 | 0.00 | 80 | 1028.9 |
| 20260506154831 | 82 | 138 | 9.0 | 16.0 | 0.00 | 0.00 | 0.00 | 81 | 1029.2 |
| 20260506154330 | 82 | 152 | 9.0 | 16.0 | 0.00 | 0.00 | 0.00 | 82 | 1029.3 |
| 20260506153829 | 81 | 182 | 10.0 | 16.0 | 0.00 | 0.00 | 0.00 | 82 | 1029.3 |
| 20260506153329 | 81 | 131 | 10.0 | 16.0 | 0.00 | 0.00 | 0.00 | 82 | 1029.2 |
| 20260506152828 | 81 | 135 | 9.0 | 16.0 | 0.00 | 0.00 | 0.00 | 82 | 1029.4 |
| 20260506151813 | 81 | 171 | 8.0 | 15.0 | 0.00 | 0.00 | 0.00 | 82 | 1029.2 |
| 20260506151313 | 81 | 163 | 10.0 | 16.0 | 0.00 | 0.00 | 0.00 | 81 | 1029.3 |
| 20260506150813 | 82 | 148 | 9.0 | 16.0 | 0.00 | 0.00 | 0.00 | 80 | 1029.5 |
| 20260506150313 | 82 | 135 | 9.0 | 16.0 | 0.00 | 0.00 | 0.00 | 80 | 1029.5 |
| 20260506145813 | 82 | 105 | 9.0 | 17.0 | 0.00 | 0.00 | 0.00 | 79 | 1029.3 |
| 20260506145313 | 83 | 130 | 8.0 | 17.0 | 0.00 | 0.00 | 0.00 | 79 | 1029.5 |
| 20260506144813 | 83 | 93 | 9.0 | 16.0 | 0.00 | 0.00 | 0.00 | 78 | 1029.4 |
| 20260506144313 | 83 | 123 | 8.0 | 15.0 | 0.00 | 0.00 | 0.00 | 80 | 1029.3 |
| 20260506143813 | 83 | 154 | 8.0 | 16.0 | 0.00 | 0.00 | 0.00 | 80 | 1029.2 |
| 20260506142758 | 83 | 125 | 8.0 | 14.0 | 0.00 | 0.00 | 0.00 | 78 | 1029.4 |
| 20260506142258 | 83 | 178 | 8.0 | 14.0 | 0.00 | 0.00 | 0.00 | 79 | 1029.2 |
| 20260506141757 | 82 | 172 | 7.0 | 14.0 | 0.00 | 0.00 | 0.00 | 79 | 1029.3 |
| 20260506141256 | 83 | 153 | 7.0 | 14.0 | 0.00 | 0.00 | 0.00 | 79 | 1029.2 |
| 20260506140756 | 83 | 127 | 8.0 | 15.0 | 0.00 | 0.00 | 0.00 | 79 | 1029.2 |
| 20260506140256 | 83 | 213 | 9.0 | 15.0 | 0.00 | 0.00 | 0.00 | 78 | 1029.4 |
| 20260506135756 | 84 | 181 | 9.0 | 16.0 | 0.00 | 0.00 | 0.00 | 76 | 1029.1 |
| 20260506135256 | 84 | 163 | 11.0 | 16.0 | 0.00 | 0.00 | 0.00 | 76 | 1029.2 |
| 20260506134756 | 83 | 163 | 8.0 | 14.0 | 0.00 | 0.00 | 0.00 | 77 | 1029.1 |
| 20260506134255 | 84 | 161 | 9.0 | 16.0 | 0.00 | 0.00 | 0.00 | 75 | 1029.3 |
| 20260506133755 | 84 | 173 | 8.0 | 16.0 | 0.00 | 0.00 | 0.00 | 76 | 1029.5 |
| 20260506133255 | 84 | 185 | 8.0 | 15.0 | 0.00 | 0.00 | 0.00 | 76 | 1029.3 |
| 20260506132755 | 84 | 169 | 9.0 | 17.0 | 0.00 | 0.00 | 0.00 | 77 | 1029.4 |
| 20260506131740 | 83 | 186 | 9.0 | 17.0 | 0.00 | 0.00 | 0.00 | 77 | 1029.4 |
| 20260506130725 | 83 | 215 | 11.0 | 16.0 | 0.00 | 0.00 | 0.00 | 77 | 1029.2 |
| 20260506125709 | 83 | 192 | 10.0 | 17.0 | 0.00 | 0.00 | 0.00 | 77 | 1029.1 |
| 20260506125208 | 83 | 176 | 9.0 | 17.0 | 0.00 | 0.00 | 0.00 | 77 | 1029.0 |
| 20260506124708 | 82 | 176 | 10.0 | 16.0 | 0.00 | 0.00 | 0.00 | 79 | 1029.2 |
| 20260506123653 | 82 | 194 | 9.0 | 15.0 | 0.00 | 0.00 | 0.00 | 79 | 1029.2 |
| 20260506123153 | 82 | 181 | 9.0 | 15.0 | 0.00 | 0.00 | 0.00 | 79 | 1029.2 |
| 20260506122137 | 83 | 161 | 10.0 | 15.0 | 0.00 | 0.00 | 0.00 | 79 | 1029.2 |
| 20260506121636 | 82 | 142 | 9.0 | 16.0 | 0.00 | 0.00 | 0.00 | 79 | 1028.9 |
| 20260506120621 | 82 | 154 | 8.0 | 16.0 | 0.00 | 0.00 | 0.00 | 80 | 1028.9 |
| 20260506120121 | 82 | 166 | 8.0 | 16.0 | 0.00 | 0.00 | 0.00 | 79 | 1029.0 |
| 20260506115621 | 82 | 163 | 10.0 | 15.0 | 0.00 | 0.00 | 0.00 | 79 | 1028.9 |
| 20260506115120 | 82 | 143 | 8.0 | 17.0 | 0.00 | 0.00 | 0.00 | 79 | 1028.8 |
| 20260506114620 | 82 | 143 | 7.0 | 17.0 | 0.00 | 0.00 | 0.00 | 79 | 1028.8 |
| 20260506114120 | 82 | 134 | 7.0 | 17.0 | 0.00 | 0.00 | 0.00 | 80 | 1028.7 |
| 20260506113619 | 82 | 159 | 9.0 | 15.0 | 0.00 | 0.00 | 0.00 | 80 | 1028.7 |
| 20260506113118 | 82 | 151 | 11.0 | 14.0 | 0.00 | 0.00 | 0.00 | 80 | 1028.5 |
| 20260506112618 | 81 | 178 | 9.0 | 14.0 | 0.00 | 0.00 | 0.00 | 80 | 1028.6 |
| 20260506112117 | 81 | 167 | 9.0 | 15.0 | 0.00 | 0.00 | 0.00 | 80 | 1028.5 |
| 20260506111102 | 81 | 165 | 8.0 | 16.0 | 0.00 | 0.00 | 0.00 | 80 | 1028.4 |
| 20260506110602 | 81 | 130 | 6.0 | 16.0 | 0.00 | 0.00 | 0.00 | 81 | 1028.3 |
| 20260506105547 | 80 | 118 | 5.0 | 16.0 | 0.00 | 0.00 | 0.00 | 82 | 1028.2 |
| 20260506104533 | 80 | 165 | 7.0 | 16.0 | 0.00 | 0.00 | 0.00 | 82 | 1028.3 |
| 20260506104032 | 80 | 103 | 6.0 | 16.0 | 0.00 | 0.00 | 0.00 | 83 | 1028.2 |
| 20260506101946 | 79 | 156 | 7.0 | 14.0 | 0.00 | 0.00 | 0.00 | 84 | 1028.2 |
| 20260506101445 | 79 | 150 | 7.0 | 14.0 | 0.00 | 0.00 | 0.00 | 84 | 1028.1 |
| 20260506100944 | 79 | 195 | 8.0 | 14.0 | 0.00 | 0.00 | 0.00 | 84 | 1028.1 |
| 20260506100444 | 79 | 139 | 7.0 | 14.0 | 0.00 | 0.00 | 0.00 | 84 | 1028.0 |
| 20260506095944 | 78 | 202 | 8.0 | 15.0 | 0.00 | 0.00 | 0.00 | 84 | 1028.0 |
| 20260506094929 | 78 | 189 | 8.0 | 14.0 | 0.00 | 0.00 | 0.00 | 84 | 1028.1 |
| 20260506093359 | 78 | 146 | 7.0 | 15.0 | 0.00 | 0.00 | 0.00 | 84 | 1027.9 |
| 20260506092859 | 78 | 167 | 9.0 | 15.0 | 0.00 | 0.00 | 0.00 | 84 | 1027.8 |
| 20260506092359 | 78 | 161 | 7.0 | 14.0 | 0.00 | 0.00 | 0.00 | 85 | 1027.9 |
| 20260506091859 | 78 | 139 | 7.0 | 16.0 | 0.00 | 0.00 | 0.00 | 85 | 1027.8 |
| 20260506091359 | 78 | 170 | 9.0 | 16.0 | 0.00 | 0.00 | 0.00 | 85 | 1028.1 |
| 20260506090858 | 78 | 175 | 9.0 | 15.0 | 0.00 | 0.00 | 0.00 | 85 | 1027.7 |
| 20260506090358 | 78 | 148 | 6.0 | 15.0 | 0.00 | 0.00 | 0.00 | 85 | 1028.0 |
| 20260506085858 | 78 | 134 | 8.0 | 15.0 | 0.00 | 0.00 | 0.00 | 85 | 1027.7 |
| 20260506085359 | 78 | 157 | 7.0 | 14.0 | 0.00 | 0.00 | 0.00 | 85 | 1027.5 |
| 20260506084858 | 78 | 139 | 6.0 | 14.0 | 0.00 | 0.00 | 0.00 | 85 | 1027.6 |
| 20260506084358 | 78 | 162 | 9.0 | 14.0 | 0.00 | 0.00 | 0.00 | 85 | 1027.6 |
| 20260506083857 | 78 | 159 | 9.0 | 14.0 | 0.00 | 0.00 | 0.00 | 85 | 1027.6 |
| 20260506083357 | 78 | 141 | 7.0 | 13.0 | 0.00 | 0.00 | 0.00 | 85 | 1027.7 |
| 20260506082858 | 78 | 168 | 7.0 | 15.0 | 0.00 | 0.00 | 0.00 | 85 | 1027.8 |
| 20260506082357 | 78 | 182 | 9.0 | 15.0 | 0.00 | 0.00 | 0.00 | 85 | 1027.9 |
| 20260506081856 | 78 | 162 | 9.0 | 16.0 | 0.00 | 0.00 | 0.00 | 85 | 1027.8 |
| 20260506081356 | 78 | 166 | 10.0 | 16.0 | 0.00 | 0.00 | 0.00 | 85 | 1027.6 |
| 20260506080856 | 78 | 140 | 6.0 | 13.0 | 0.00 | 0.00 | 0.00 | 85 | 1027.5 |
| 20260506080355 | 78 | 137 | 9.0 | 16.0 | 0.00 | 0.00 | 0.00 | 85 | 1027.3 |
| 20260506072841 | 78 | 134 | 7.0 | 16.0 | 0.00 | 0.00 | 0.00 | 85 | 1027.4 |
| 20260506072340 | 78 | 188 | 8.0 | 14.0 | 0.00 | 0.00 | 0.00 | 85 | 1027.6 |
| 20260506071326 | 78 | 160 | 8.0 | 13.0 | 0.00 | 0.00 | 0.00 | 85 | 1027.3 |
| 20260506070826 | 78 | 176 | 8.0 | 13.0 | 0.00 | 0.00 | 0.00 | 85 | 1027.6 |
| 20260506070326 | 78 | 167 | 8.0 | 12.0 | 0.00 | 0.00 | 0.00 | 86 | 1027.5 |
| 20260506061807 | 78 | 158 | 7.0 | 13.0 | 0.00 | 0.00 | 0.00 | 86 | 1027.7 |
| 20260506061307 | 78 | 158 | 5.0 | 14.0 | 0.00 | 0.00 | 0.00 | 86 | 1027.7 |
| 20260506060807 | 78 | 164 | 6.0 | 14.0 | 0.00 | 0.00 | 0.00 | 86 | 1027.7 |
| 20260506060307 | 78 | 154 | 5.0 | 13.0 | 0.00 | 0.00 | 0.00 | 86 | 1027.8 |